Language: 


Des rapports , des résumés tant et plus, au choix de chacun....


Données Historiques de Météogheer
Journalier Rapport pour Mars 4, 2018 Unitée:  Métrique    Impériale   Les deux
Suivant Jour »
Journalier Hebdomadaire Mensuel Annuel Sur mesure
  Max: Min: Moyenne:
Température: 11.6 °C 1.3 °C 4.2 °C
Point de rosée: 7.0 °C 1.0 °C 3.3 °C
Humidité: 98% 53% 92%
Vent: 13.7km/h 0.0km/h 2.6km/h
Rafales: 17.7km/h - -
Vent- - South
Pression: 994.1 hPa 988.0 hPa -
Pluie: 4.3 mm    
Historical Graphs
 
 
Données tabulaires pour Mars 4, 2018
Heure Température Point de rosée Pression Vent Vent Rafales Humidité Pluie Taux (Horaire) Conditions
00:04 2.7 °C 1.0 °C 994.1 hPa Calm   10.1 km/h 89% 0.0 mm
00:09 2.7 °C 1.0 °C 994.1 hPa SSE 5.5 km/h 9.3 km/h 90% 0.0 mm
00:14 2.8 °C 2.0 °C 993.1 hPa SE 5.8 km/h 9.7 km/h 91% 0.0 mm
00:19 2.8 °C 2.0 °C 993.1 hPa SSE 5.8 km/h 12.2 km/h 90% 0.0 mm
00:24 2.8 °C 2.0 °C 993.1 hPa Calm   12.2 km/h 91% 0.0 mm
00:29 2.8 °C 2.0 °C 994.1 hPa SE 9.7 km/h 10.5 km/h 91% 0.0 mm
00:34 2.7 °C 1.0 °C 994.1 hPa SSE 5.8 km/h 10.5 km/h 90% 0.0 mm
00:39 2.7 °C 1.0 °C 994.1 hPa Calm   9.7 km/h 90% 0.0 mm
00:50 2.6 °C 1.0 °C 993.1 hPa Calm   7.9 km/h 90% 0.0 mm
00:55 2.5 °C 1.0 °C 993.1 hPa SSE 5.5 km/h 9.0 km/h 90% 0.0 mm
01:00 2.5 °C 2.0 °C 994.1 hPa South 7.9 km/h 14.0 km/h 91% 0.0 mm
01:05 2.5 °C 2.0 °C 994.1 hPa Calm   14.0 km/h 92% 0.0 mm
01:10 2.4 °C 1.0 °C 994.1 hPa SSE 6.4 km/h 10.5 km/h 91% 0.0 mm
01:15 2.4 °C 1.0 °C 994.1 hPa Calm   6.4 km/h 90% 0.0 mm
01:20 2.3 °C 1.0 °C 994.1 hPa Calm   5.0 km/h 90% 0.0 mm
01:25 2.3 °C 1.0 °C 994.1 hPa Calm   2.1 km/h 90% 0.0 mm
01:30 2.3 °C 1.0 °C 994.1 hPa Calm   1.8 km/h 90% 0.0 mm
01:36 2.3 °C 1.0 °C 994.1 hPa Calm   1.8 km/h 91% 0.0 mm
01:41 2.3 °C 1.0 °C 994.1 hPa Calm     91% 0.0 mm
01:46 2.4 °C 1.0 °C 993.1 hPa Calm     92% 0.0 mm
01:51 2.5 °C 2.0 °C 993.1 hPa Calm   4.7 km/h 92% 0.0 mm
01:56 2.6 °C 2.0 °C 993.1 hPa South 1.4 km/h 7.9 km/h 93% 0.0 mm
02:01 2.6 °C 2.0 °C 993.1 hPa Calm   7.9 km/h 93% 0.0 mm
02:06 2.6 °C 2.0 °C 993.1 hPa Calm   1.8 km/h 92% 0.0 mm
02:11 2.6 °C 2.0 °C 993.1 hPa Calm   2.6 km/h 92% 0.0 mm
02:16 2.7 °C 2.0 °C 993.1 hPa Calm   2.6 km/h 92% 0.0 mm
02:21 2.7 °C 2.0 °C 993.1 hPa Calm   7.6 km/h 93% 0.0 mm
02:26 2.8 °C 2.0 °C 993.1 hPa Calm   7.6 km/h 93% 0.0 mm
02:31 2.8 °C 2.0 °C 993.1 hPa Calm   4.7 km/h 93% 0.0 mm
02:36 2.9 °C 2.0 °C 993.1 hPa Calm   5.5 km/h 93% 0.0 mm
02:41 2.9 °C 2.0 °C 993.1 hPa Calm   5.5 km/h 94% 0.0 mm
02:46 2.9 °C 2.0 °C 993.1 hPa SSE 5.0 km/h 5.0 km/h 94% 0.0 mm
02:51 3.0 °C 2.0 °C 993.1 hPa Calm   5.0 km/h 93% 0.0 mm
02:56 2.9 °C 2.0 °C 993.1 hPa Calm   2.6 km/h 94% 0.0 mm
03:01 3.0 °C 2.0 °C 993.1 hPa Calm   6.1 km/h 93% 0.0 mm
03:06 3.0 °C 2.0 °C 993.1 hPa Calm   8.7 km/h 94% 0.0 mm
03:11 3.1 °C 2.0 °C 993.1 hPa Calm   8.7 km/h 94% 0.0 mm
03:16 3.1 °C 2.0 °C 993.1 hPa SSE 4.0 km/h 5.5 km/h 94% 0.0 mm
03:21 3.2 °C 3.0 °C 993.1 hPa Calm   6.9 km/h 94% 0.0 mm
03:26 3.1 °C 2.0 °C 993.1 hPa Calm   6.9 km/h 94% 0.0 mm
03:31 3.0 °C 2.0 °C 993.1 hPa South 7.9 km/h 7.9 km/h 93% 0.0 mm
03:36 3.0 °C 2.0 °C 993.1 hPa Calm   7.9 km/h 93% 0.0 mm
03:41 2.9 °C 2.0 °C 993.1 hPa Calm   6.4 km/h 93% 0.0 mm
03:46 2.8 °C 2.0 °C 993.1 hPa Calm   1.4 km/h 93% 0.0 mm
03:51 2.8 °C 2.0 °C 993.1 hPa Calm   1.4 km/h 93% 0.0 mm
03:56 2.7 °C 2.0 °C 993.1 hPa Calm     93% 0.0 mm
04:01 2.7 °C 2.0 °C 993.1 hPa Calm   1.4 km/h 93% 0.0 mm
04:06 2.8 °C 2.0 °C 993.1 hPa Calm   7.2 km/h 94% 0.0 mm
04:11 2.9 °C 3.0 °C 993.1 hPa SSE 6.1 km/h 7.2 km/h 96% 0.0 mm
04:16 2.8 °C 3.0 °C 992.1 hPa Calm   7.6 km/h 96% 0.0 mm
04:21 2.8 °C 3.0 °C 992.1 hPa Calm   7.6 km/h 96% 0.0 mm
04:26 2.7 °C 2.0 °C 992.1 hPa Calm   4.7 km/h 95% 0.0 mm
04:31 2.7 °C 2.0 °C 992.1 hPa Calm   6.1 km/h 95% 0.0 mm
04:36 2.6 °C 2.0 °C 992.1 hPa Calm   6.1 km/h 95% 0.0 mm
04:41 2.5 °C 2.0 °C 992.1 hPa Calm   6.1 km/h 95% 0.0 mm
04:46 2.5 °C 2.0 °C 993.1 hPa Calm   6.1 km/h 95% 0.0 mm
04:51 2.6 °C 3.0 °C 993.1 hPa WNW 3.5 km/h 8.7 km/h 96% 0.0 mm
04:56 2.6 °C 3.0 °C 993.1 hPa South 1.4 km/h 8.7 km/h 96% 0.0 mm
05:01 2.4 °C 2.0 °C 992.1 hPa South 1.4 km/h 6.1 km/h 96% 0.0 mm
05:07 2.3 °C 2.0 °C 992.1 hPa Calm   6.1 km/h 95% 0.0 mm
05:12 2.2 °C 2.0 °C 992.1 hPa Calm   4.3 km/h 95% 0.0 mm
05:17 2.1 °C 1.0 °C 993.1 hPa Calm   6.1 km/h 94% 0.0 mm
05:22 2.0 °C 1.0 °C 993.1 hPa Calm   6.1 km/h 94% 0.0 mm
05:27 2.0 °C 1.0 °C 993.1 hPa Calm     94% 0.0 mm
05:32 1.9 °C 1.0 °C 993.1 hPa Calm   1.4 km/h 95% 0.0 mm
05:37 1.9 °C 1.0 °C 993.1 hPa SE 2.6 km/h 3.2 km/h 95% 0.0 mm
05:42 1.9 °C 2.0 °C 993.1 hPa Calm   4.0 km/h 96% 0.0 mm
05:47 1.9 °C 2.0 °C 993.1 hPa Calm   5.0 km/h 96% 0.0 mm
05:52 1.9 °C 2.0 °C 993.1 hPa Calm   5.0 km/h 96% 0.0 mm
05:57 1.9 °C 2.0 °C 993.1 hPa Calm   4.0 km/h 96% 0.0 mm
06:02 1.9 °C 2.0 °C 993.1 hPa Calm   5.0 km/h 97% 0.0 mm
06:07 2.0 °C 2.0 °C 993.1 hPa Calm   5.0 km/h 96% 0.0 mm
06:12 2.0 °C 2.0 °C 993.1 hPa Calm   1.4 km/h 97% 0.0 mm
06:17 1.9 °C 2.0 °C 993.1 hPa Calm   1.4 km/h 97% 0.0 mm
06:22 1.7 °C 1.0 °C 993.1 hPa Calm   2.1 km/h 96% 0.0 mm
06:27 1.7 °C 1.0 °C 993.1 hPa Calm   2.1 km/h 96% 0.0 mm
06:32 1.6 °C 1.0 °C 993.1 hPa Calm   2.6 km/h 96% 0.0 mm
06:37 1.6 °C 1.0 °C 993.1 hPa Calm   2.6 km/h 96% 0.0 mm
06:42 1.5 °C 1.0 °C 993.1 hPa Calm     96% 0.0 mm
06:47 1.5 °C 1.0 °C 993.1 hPa Calm   5.5 km/h 96% 0.0 mm
06:52 1.5 °C 1.0 °C 993.1 hPa SSW 1.4 km/h 5.5 km/h 96% 0.0 mm
06:58 1.6 °C 1.0 °C 993.1 hPa Calm   3.2 km/h 96% 0.0 mm
07:02 1.7 °C 1.0 °C 993.1 hPa Calm   2.1 km/h 97% 0.0 mm
07:08 1.7 °C 1.0 °C 993.1 hPa Calm   2.1 km/h 97% 0.0 mm
07:12 1.7 °C 1.0 °C 993.1 hPa Calm     97% 0.0 mm
07:17 1.7 °C 1.0 °C 993.1 hPa Calm     97% 0.0 mm
07:22 1.4 °C 1.0 °C 993.1 hPa Calm     96% 0.0 mm
07:27 1.4 °C 1.0 °C 993.1 hPa Calm     96% 0.0 mm
07:33 1.4 °C 1.0 °C 993.1 hPa Calm     96% 0.0 mm
07:38 1.4 °C 1.0 °C 993.1 hPa Calm     96% 0.0 mm
07:43 1.3 °C 1.0 °C 993.1 hPa Calm     96% 0.0 mm
07:48 1.3 °C 1.0 °C 993.1 hPa Calm     96% 0.0 mm
07:53 1.3 °C 1.0 °C 993.1 hPa Calm     96% 0.0 mm
07:58 1.3 °C 1.0 °C 993.1 hPa Calm     96% 0.0 mm
08:03 1.3 °C 1.0 °C 993.1 hPa Calm     96% 0.0 mm
08:08 1.3 °C 1.0 °C 993.1 hPa Calm   5.8 km/h 96% 0.0 mm
08:13 1.3 °C 1.0 °C 993.1 hPa Calm   5.8 km/h 96% 0.0 mm
08:18 1.3 °C 1.0 °C 993.1 hPa Calm   5.5 km/h 96% 0.0 mm
08:23 1.3 °C 1.0 °C 993.1 hPa Calm   6.4 km/h 96% 0.0 mm
08:28 2.8 °C 3.0 °C 993.1 hPa Calm   6.4 km/h 98% 0.0 mm
08:33 3.1 °C 3.0 °C 993.1 hPa Calm   6.1 km/h 98% 0.0 mm
08:38 3.4 °C 3.0 °C 993.1 hPa Calm   7.9 km/h 98% 0.0 mm
08:43 3.4 °C 3.0 °C 993.1 hPa SE 7.6 km/h 7.9 km/h 98% 0.0 mm
08:48 3.4 °C 3.0 °C 993.1 hPa SSE 9.3 km/h 11.9 km/h 98% 0.0 mm
08:53 3.4 °C 3.0 °C 993.1 hPa SSE 5.5 km/h 11.9 km/h 98% 0.0 mm
08:58 3.4 °C 3.0 °C 993.1 hPa Calm   9.3 km/h 98% 0.0 mm
09:03 4.6 °C 4.0 °C 993.1 hPa South 1.4 km/h 9.3 km/h 97% 0.0 mm
09:08 4.6 °C 4.0 °C 993.1 hPa Calm   9.3 km/h 97% 0.0 mm
09:13 4.6 °C 4.0 °C 993.1 hPa Calm   9.0 km/h 97% 0.0 mm
09:18 4.6 °C 4.0 °C 993.1 hPa Calm   9.0 km/h 97% 0.0 mm
09:23 4.6 °C 4.0 °C 993.1 hPa South 4.3 km/h 10.1 km/h 97% 0.0 mm
09:28 4.6 °C 4.0 °C 993.1 hPa South 5.0 km/h 10.1 km/h 97% 0.0 mm
09:33 4.6 °C 4.0 °C 993.1 hPa SSE 8.7 km/h 8.7 km/h 97% 0.0 mm
09:38 4.6 °C 4.0 °C 993.1 hPa South 10.1 km/h 10.1 km/h 97% 0.0 mm
09:43 4.6 °C 4.0 °C 993.1 hPa SSE 4.3 km/h 10.1 km/h 97% 0.0 mm
09:48 4.6 °C 4.0 °C 993.1 hPa Calm   10.1 km/h 97% 0.0 mm
09:53 4.6 °C 4.0 °C 993.1 hPa Calm   5.5 km/h 97% 0.0 mm
09:58 6.7 °C 5.0 °C 993.1 hPa SSE 5.8 km/h 9.7 km/h 85% 0.0 mm
10:10 6.7 °C 5.0 °C 993.1 hPa South 5.5 km/h 13.7 km/h 85% 0.0 mm
10:20 8.5 °C 6.0 °C 993.1 hPa South 11.9 km/h 11.9 km/h 81% 0.0 mm
10:29 8.5 °C 5.0 °C 993.1 hPa Calm   13.0 km/h 78% 0.0 mm
10:35 8.8 °C 5.0 °C 993.1 hPa South 6.9 km/h 10.5 km/h 75% 0.0 mm
10:40 8.8 °C 5.0 °C 993.1 hPa SSE 4.0 km/h 10.5 km/h 75% 0.0 mm
11:10 11.6 °C 3.0 °C 993.1 hPa South 6.4 km/h 10.5 km/h 53% 0.0 mm
11:25 9.7 °C 3.0 °C 993.1 hPa South 9.7 km/h 12.6 km/h 63% 0.0 mm
11:30 9.4 °C 3.0 °C 992.1 hPa SSE 10.1 km/h 12.6 km/h 65% 0.0 mm
11:40 8.8 °C 4.0 °C 992.1 hPa Calm   10.5 km/h 69% 0.0 mm
11:50 8.5 °C 4.0 °C 992.1 hPa Calm   10.1 km/h 71% 0.0 mm
12:00 8.3 °C 4.0 °C 991.1 hPa Calm   6.4 km/h 73% 0.0 mm
12:10 8.2 °C 4.0 °C 991.1 hPa East 7.2 km/h 7.9 km/h 74% 0.0 mm
12:20 8.2 °C 4.0 °C 990.1 hPa Calm   7.2 km/h 75% 0.0 mm
12:30 8.1 °C 4.0 °C 991.1 hPa SSE 6.1 km/h 9.7 km/h 75% 0.0 mm
12:40 8.3 °C 5.0 °C 991.1 hPa SE 5.5 km/h 9.7 km/h 76% 0.0 mm
12:50 8.3 °C 5.0 °C 991.1 hPa Calm   6.4 km/h 76% 0.0 mm
13:00 8.4 °C 5.0 °C 990.1 hPa SSE 4.7 km/h 8.7 km/h 76% 0.0 mm
13:10 8.4 °C 5.0 °C 990.1 hPa Calm   12.2 km/h 76% 0.0 mm
13:20 8.4 °C 5.0 °C 990.1 hPa SSE 7.6 km/h 14.0 km/h 76% 0.0 mm
13:30 8.3 °C 5.0 °C 990.1 hPa Calm   12.2 km/h 77% 0.0 mm
13:40 8.2 °C 5.0 °C 990.1 hPa Calm   9.7 km/h 79% 0.0 mm
13:50 8.2 °C 5.0 °C 991.1 hPa Calm   12.6 km/h 81% 0.0 mm
14:00 8.1 °C 5.0 °C 991.1 hPa ESE 10.5 km/h 10.5 km/h 81% 0.0 mm
14:10 8.0 °C 5.0 °C 991.1 hPa Calm   10.5 km/h 81% 0.0 mm
14:20 8.0 °C 6.0 °C 990.1 hPa Calm   2.6 km/h 82% 0.0 mm
14:30 8.0 °C 6.0 °C 990.1 hPa Calm   2.1 km/h 82% 0.3 mm
14:40 8.0 °C 6.0 °C 990.1 hPa Calm   5.8 km/h 83% 0.3 mm
14:50 7.9 °C 6.0 °C 990.1 hPa Calm   6.9 km/h 84% 0.3 mm
15:00 7.9 °C 6.0 °C 989.1 hPa Calm   1.8 km/h 85% 0.3 mm
15:10 7.8 °C 6.0 °C 989.1 hPa Calm   4.7 km/h 86% 0.3 mm
15:20 7.8 °C 6.0 °C 990.1 hPa Calm   7.9 km/h 87% 0.3 mm
15:30 7.7 °C 6.0 °C 989.1 hPa Calm   2.6 km/h 86% 0.0 mm
15:40 7.6 °C 6.0 °C 989.1 hPa Calm   5.0 km/h 87% 0.0 mm
15:50 7.5 °C 6.0 °C 989.1 hPa Calm   2.6 km/h 87% 0.0 mm
16:00 7.4 °C 6.0 °C 989.1 hPa Calm   6.1 km/h 88% 0.0 mm
16:10 7.3 °C 6.0 °C 989.1 hPa Calm   6.4 km/h 89% 0.3 mm
16:20 7.2 °C 6.0 °C 989.1 hPa ESE 4.0 km/h 6.9 km/h 90% 0.3 mm
16:30 7.1 °C 6.0 °C 989.1 hPa Calm   5.0 km/h 90% 0.5 mm
16:40 7.0 °C 6.0 °C 989.1 hPa Calm   7.6 km/h 91% 0.5 mm
16:50 6.8 °C 6.0 °C 989.1 hPa Calm   9.0 km/h 92% 0.8 mm
17:00 6.7 °C 6.0 °C 989.1 hPa Calm   6.1 km/h 92% 1.3 mm
17:10 6.6 °C 6.0 °C 989.1 hPa Calm   5.8 km/h 93% 1.3 mm
17:20 6.6 °C 6.0 °C 989.1 hPa Calm   10.5 km/h 95% 1.5 mm
17:30 6.5 °C 6.0 °C 989.1 hPa Calm     95% 1.5 mm
17:45 6.6 °C 6.0 °C 989.1 hPa SSE 5.8 km/h 10.5 km/h 97% 1.5 mm
17:50 6.6 °C 6.0 °C 989.1 hPa Calm   17.7 km/h 97% 1.5 mm
18:00 6.5 °C 7.0 °C 989.1 hPa South 9.0 km/h 15.8 km/h 98% 1.8 mm
18:10 6.4 °C 6.0 °C 989.1 hPa SSW 7.2 km/h 15.8 km/h 98% 1.8 mm
18:20 6.3 °C 6.0 °C 989.1 hPa Calm   12.2 km/h 98% 1.5 mm
18:30 6.1 °C 6.0 °C 989.1 hPa WSW 13.7 km/h 14.0 km/h 98% 1.5 mm
18:40 5.8 °C 6.0 °C 989.1 hPa SW 11.9 km/h 13.0 km/h 98% 1.3 mm
18:50 5.6 °C 6.0 °C 989.1 hPa SW 10.1 km/h 10.5 km/h 98% 0.8 mm
19:00 5.4 °C 6.0 °C 988.0 hPa SW 6.4 km/h 12.6 km/h 98% 0.5 mm
19:10 5.4 °C 6.0 °C 988.0 hPa SW 7.9 km/h 16.3 km/h 98% 0.3 mm
19:20 5.4 °C 6.0 °C 989.1 hPa SW 9.0 km/h 14.3 km/h 98% 0.3 mm
19:30 5.3 °C 6.0 °C 989.1 hPa WSW 9.7 km/h 12.2 km/h 98% 0.0 mm
19:40 5.2 °C 5.0 °C 989.1 hPa WSW 8.7 km/h 12.2 km/h 98% 0.0 mm
19:50 5.0 °C 5.0 °C 989.1 hPa SW 13.7 km/h 13.7 km/h 98% 0.0 mm
20:00 4.8 °C 5.0 °C 989.1 hPa SW 7.9 km/h 12.6 km/h 98% 0.0 mm
20:10 4.7 °C 5.0 °C 989.1 hPa SSW 6.1 km/h 12.6 km/h 98% 0.0 mm
20:20 4.6 °C 5.0 °C 988.0 hPa SSW 9.0 km/h 13.7 km/h 98% 0.0 mm
20:30 4.6 °C 5.0 °C 989.1 hPa WSW 9.7 km/h 16.3 km/h 98% 0.0 mm
20:40 4.6 °C 5.0 °C 989.1 hPa SW 11.9 km/h 15.4 km/h 98% 0.0 mm
20:50 4.6 °C 5.0 °C 989.1 hPa WSW 10.1 km/h 12.6 km/h 98% 0.0 mm
21:00 4.6 °C 5.0 °C 990.1 hPa SSW 7.2 km/h 11.9 km/h 98% 0.3 mm
21:10 4.6 °C 5.0 °C 990.1 hPa SW 7.9 km/h 10.1 km/h 98% 0.3 mm
21:20 4.7 °C 5.0 °C 990.1 hPa SSW 7.9 km/h 16.3 km/h 98% 0.3 mm
21:30 4.8 °C 5.0 °C 990.1 hPa SW 6.9 km/h 12.2 km/h 98% 0.3 mm
21:45 4.7 °C 5.0 °C 990.1 hPa SSW 4.7 km/h 10.5 km/h 98% 0.3 mm
21:50 4.7 °C 5.0 °C 991.1 hPa SSW 3.2 km/h 11.1 km/h 98% 0.3 mm
22:00 4.5 °C 5.0 °C 991.1 hPa South 6.4 km/h 10.5 km/h 98% 0.0 mm
22:10 4.3 °C 4.0 °C 991.1 hPa Calm   8.7 km/h 98% 0.0 mm
22:20 4.2 °C 4.0 °C 991.1 hPa Calm   7.9 km/h 98% 0.0 mm
22:34 4.1 °C 4.0 °C 991.1 hPa SSW 5.5 km/h 5.5 km/h 98% 0.0 mm
22:40 4.1 °C 4.0 °C 991.1 hPa South 6.4 km/h 6.4 km/h 98% 0.0 mm
22:50 4.4 °C 4.0 °C 990.1 hPa South 6.9 km/h 13.0 km/h 98% 0.0 mm
23:00 4.6 °C 5.0 °C 990.1 hPa South 7.9 km/h 14.8 km/h 98% 0.0 mm
23:10 4.5 °C 5.0 °C 990.1 hPa SSW 6.4 km/h 13.7 km/h 98% 0.0 mm
23:20 4.6 °C 5.0 °C 991.1 hPa South 6.9 km/h 15.4 km/h 98% 0.0 mm
23:30 4.6 °C 5.0 °C 991.1 hPa SSW 11.6 km/h 11.6 km/h 98% 0.0 mm
23:40 4.6 °C 5.0 °C 991.1 hPa Calm   11.6 km/h 98% 0.0 mm
23:50 4.6 °C 5.0 °C 991.1 hPa Calm     98% 0.0 mm
Données Historique de Météo Turbie

Mise a jour : 18/06/2018 00:15:12
Généré par Cumulus 1.9.4 (1099)